Regional Weather Roundup
Issued by NWS

Home | Current Version | Previous Version | Graphics & Text | Print | Product List | Glossary On
Versions: 1 2 3 4 5 6 7 8 9 10 11 12 13 14 15 16 17 18 19 20 21 22 23 24 25 26 27 28 29 30 31 32 33 34 35 36 37 38 39 40 41 42 43 44 45 46 47 48 49 50
000
ASUS43 KTOP 251459
RWRKS

WEATHER ROUNDUP FOR KANSAS
NATIONAL WEATHER SERVICE GOODLAND KS
1000 AM CDT WED APR 25 2018

NOTE:  "FAIR" INDICATES FEW OR NO CLOUDS BELOW 12,000 FEET WITH NO
SIGNIFICANT WEATHER AND/OR OBSTRUCTIONS TO VISIBILITY.

KSZ001>006-013>018-027>032-041>047-251600-
NORTHWEST KANSAS

CITY           SKY/WX    TMP DP  RH WIND       PRES   REMARKS
GOODLAND       SUNNY     42  31  64 NW15      30.33F
HAYS           CLOUDY    43  38  82 N14       30.29F
HILL CITY      CLOUDY    44  38  79 N18       30.32F
RUSSELL        CLOUDY    42  41  96 N20       30.26F
$$

KSZ061>065-074>080-084>089-251600-
SOUTHWEST KANSAS

CITY           SKY/WX    TMP DP  RH WIND       PRES   REMARKS
DODGE CITY     CLOUDY    39  36  89 N13G24    30.30S WCI  31
GARDEN CITY    CLOUDY    39  35  86 N17       30.32S WCI  30
GREAT BEND     CLOUDY    42  40  92 N16       30.27S
LIBERAL        PTSUNNY   41  36  82 N18G25    30.33F
$$

KSZ066>073-081>083-090>101-251600-
SOUTHEAST KANSAS

CITY           SKY/WX    TMP DP  RH WIND       PRES   REMARKS
CHANUTE        CLOUDY    54  52  93 E3        30.13F
COFFEYVILLE    LGT RAIN  53  52  96 CALM      30.14F
HUTCHINSON     CLOUDY    44  43  96 NW16      30.22R FOG
MEDICINE LODGE   N/A     45  41  86 N15G24    30.24S
NEWTON         CLOUDY    44  43  96 NW15G24   30.19R
PARSONS        LGT RAIN  55  53  93 NE5       30.14F
WICHITA INTL   CLOUDY    47  44  90 NW15      30.21R
WICHITA JABRA  LGT RAIN  45  45 100 NW10      30.20R
WINFIELD       CLOUDY    46  46 100 NW13      30.21S
$$

KSZ007>012-019>026-033>040-048>060-102>105-251600-
NORTHEAST KANSAS

CITY           SKY/WX    TMP DP  RH WIND       PRES   REMARKS
CONCORDIA      LGT RAIN  42  40  92 N15       30.24S
EMPORIA        LGT RAIN  50  48  93 N8        30.15F FOG
LAWRENCE       CLOUDY    50  48  93 N10       30.15F
MANHATTAN      LGT RAIN  47  44  90 N10       30.19F FOG
OLATHE IND     LGT RAIN  50  48  93 N13       30.15S
OLATHE EXE     CLOUDY    50  47  89 N10       30.15S
SALINA         LGT RAIN  45  44  97 N18       30.22F FOG
TOPEKA BILLARD CLOUDY    49  48  97 N9        30.16F
TOPEKA FORBES  CLOUDY    50  48  93 N9        30.16F
$$




USA.gov is the U.S. government's official web portal to all federal, state and local government web resources and services.